Tocumen International Airport
MPTO : now visible

Airfield :











YOU CAN JOIN US ON...

 
LOGIN :

Register | Disclaimer

   EN    FR    IT 

 









Legend :    VFR   Marginal VFR   IFR   Intensive IFR   Very Intensive IFR
Visi :
Ceiling :
>= 8 km
>= 3000ft
5 to 8 km
1000 to 3000 ft
1500m to 5 km
500 to 1000 ft
800 to 1500m
200 to 500 ft
< 800m
< 200 ft
Symbols :   Thunderstorms  Fog  Heavy snow  Heavy precipitations  Wind > 20 kt






- Airport Elevation : 135 ft
- IATA code : PTY


MPTO - Tocumen International

CURRENT METAR :
  • 180600Z 29004KT 9999 SCT017 SCT090 27/22 Q1009 NOSIG

EXPIRED METARs :
  • 180500Z 29005KT 9999 SCT017 SCT090 27/22 Q1009 NOSIG
  • 180400Z 33007KT 9999 SCT017 SCT090 27/22 Q1008 NOSIG

TAF TAF MPTO
Valid from the 18 at 06:00 until the 19 at 12:00 UTC


180500Z 1806/1912 34008KT 9999 SCT018
TEMPO 1807/1809 00000KT
TEMPO 1810/1812 27005KT
TEMPO 1819/1821 02014KT



MET'MAP, your aeronautical weather chart ! - Copyright ORBIFLY December 2007 - Disclaimer

ORBIFLY MET'MAP TEAM :

Programming & Development : Alexandra Zaïnal
Concept & original design : Baudouin d'Aumeries
Assistance for programming : Marc-Olivier Méhu
Technical & hardware support : Manuel Goepfert

Contact : metmap@orbifly.com




SOURCES & CREDITS :

   NOAA       Earth
Advisory